Location: ??
(34.9170°N, 135.5016°E)
Time: 23:19:49
(UTC+00:00)

N. Korean satellite - Visible Passes

Search period start: 22 January 2021 00:00
Search period end: 01 February 2021 00:00
Orbit: 452 x 502 km, 97.2° (Epoch: 22 January)

Date Brightness Start Highest point End Pass type
(mag) Time Alt. Az. Time Alt. Az. Time Alt. Az.
22 Jan 10.3 08:50:36 10° WSW 08:51:42 11° W 08:52:48 10° WNW visible
22 Jan 6.6 20:16:56 10° NNE 20:20:23 73° E 20:23:47 10° S visible
23 Jan 8.5 19:50:46 10° NE 19:53:46 28° E 19:56:44 10° SSE visible
23 Jan 8.3 21:25:19 10° NW 21:26:46 12° WNW 21:28:12 10° W visible
24 Jan 9.8 19:25:36 10° ENE 19:27:03 12° E 19:28:29 10° ESE visible
24 Jan 7.4 20:57:27 10° NNW 21:00:24 27° WNW 21:03:18 10° SW visible
25 Jan 6.3 20:30:29 10° N 20:33:55 68° WNW 20:37:17 10° SSW visible
26 Jan 7.5 20:04:02 10° NNE 20:07:20 44° E 20:10:36 10° S visible
27 Jan 9.2 19:38:11 10° NE 19:40:39 19° E 19:43:06 10° SE visible
27 Jan 7.9 21:11:27 10° NNW 21:13:49 18° WNW 21:16:10 10° WSW visible
28 Jan 6.8 20:44:09 10° N 20:47:23 40° WNW 20:50:35 10° SW visible
29 Jan 10.5 08:51:29 10° WSW 08:52:14 10° W 08:53:00 10° W visible
29 Jan 6.5 20:17:26 10° NNE 20:20:51 75° ESE 20:24:13 10° S visible
30 Jan 8.5 19:51:12 10° NE 19:54:12 28° E 19:57:11 10° SSE visible
30 Jan 8.3 21:25:54 10° NW 21:27:12 12° WNW 21:28:30 10° W visible
31 Jan 9.8 19:25:59 10° ENE 19:27:28 12° E 19:28:58 10° ESE visible
31 Jan 7.4 20:57:55 10° NNW 21:00:48 26° WNW 21:03:41 10° SW visible
